Year,Month,Day,Hour,Minute,Value (Times are PST for temperature in C)
2009,07,28,00,00,24.10
2009,07,28,00,01,24.10
2009,07,28,00,02,24.00
2009,07,28,00,03,23.90
2009,07,28,00,04,23.80
2009,07,28,00,05,23.80
2009,07,28,00,06,23.60
2009,07,28,00,07,23.50
2009,07,28,00,08,23.40
2009,07,28,00,09,23.40
2009,07,28,00,10,23.40
2009,07,28,00,11,23.30
2009,07,28,00,12,23.30
2009,07,28,00,13,23.20
2009,07,28,00,14,23.20
2009,07,28,00,15,23.20
2009,07,28,00,16,23.20
2009,07,28,00,17,23.10
2009,07,28,00,18,23.10
2009,07,28,00,19,23.10
2009,07,28,00,20,23.10
2009,07,28,00,21,23.10
2009,07,28,00,22,23.10
2009,07,28,00,23,23.10
2009,07,28,00,24,23.00
2009,07,28,00,25,23.00
2009,07,28,00,26,23.00
2009,07,28,00,27,22.90
2009,07,28,00,28,22.90
2009,07,28,00,29,22.90
2009,07,28,00,30,22.90
2009,07,28,00,31,22.80
2009,07,28,00,32,22.80
2009,07,28,00,33,22.80
2009,07,28,00,34,22.80
2009,07,28,00,35,22.80
2009,07,28,00,36,22.80
2009,07,28,00,37,22.70
2009,07,28,00,38,22.70
2009,07,28,00,39,22.60
2009,07,28,00,40,22.60
2009,07,28,00,41,22.60
2009,07,28,00,42,22.60
2009,07,28,00,43,22.60
2009,07,28,00,44,22.60
2009,07,28,00,45,22.60
2009,07,28,00,46,22.70
2009,07,28,00,47,22.70
2009,07,28,00,48,22.70
2009,07,28,00,49,22.70
2009,07,28,00,50,22.70
2009,07,28,00,51,22.70
2009,07,28,00,52,22.70
2009,07,28,00,53,22.70
2009,07,28,00,54,22.80
2009,07,28,00,55,22.80
2009,07,28,00,56,22.80
2009,07,28,00,57,22.80
2009,07,28,00,58,22.80
2009,07,28,00,59,22.80
2009,07,28,01,00,22.80
2009,07,28,01,01,22.80
2009,07,28,01,02,22.90
2009,07,28,01,03,22.90
2009,07,28,01,04,22.90
2009,07,28,01,05,22.90
2009,07,28,01,06,22.90
2009,07,28,01,07,22.90
2009,07,28,01,08,22.90
2009,07,28,01,09,22.80
2009,07,28,01,10,22.80
2009,07,28,01,11,22.80
2009,07,28,01,12,22.80
2009,07,28,01,13,22.80
2009,07,28,01,14,22.80
2009,07,28,01,15,22.80
2009,07,28,01,16,22.80
2009,07,28,01,17,22.80
2009,07,28,01,18,22.80
2009,07,28,01,19,22.80
2009,07,28,01,20,22.80
2009,07,28,01,21,22.90
2009,07,28,01,22,22.90
2009,07,28,01,23,22.90
2009,07,28,01,24,22.90
2009,07,28,01,25,22.80
2009,07,28,01,26,22.80
2009,07,28,01,27,22.80
2009,07,28,01,28,22.70
2009,07,28,01,29,22.70
2009,07,28,01,30,22.60
2009,07,28,01,31,22.60
2009,07,28,01,32,22.50
2009,07,28,01,33,22.50
2009,07,28,01,34,22.50
2009,07,28,01,35,22.40
2009,07,28,01,36,22.40
2009,07,28,01,37,22.40
2009,07,28,01,38,22.30
2009,07,28,01,39,22.30
2009,07,28,01,40,22.30
2009,07,28,01,41,22.30
2009,07,28,01,42,22.20
2009,07,28,01,43,22.20
2009,07,28,01,44,22.20
2009,07,28,01,45,22.20
2009,07,28,01,46,22.10
2009,07,28,01,47,22.10
2009,07,28,01,48,22.10
2009,07,28,01,49,22.00
2009,07,28,01,50,22.00
2009,07,28,01,51,21.90
2009,07,28,01,52,21.90
2009,07,28,01,53,21.90
2009,07,28,01,54,21.90
2009,07,28,01,55,21.90
2009,07,28,01,56,21.90
2009,07,28,01,57,21.90
2009,07,28,01,58,21.90
2009,07,28,01,59,21.90
2009,07,28,02,00,21.80
2009,07,28,02,01,21.80
2009,07,28,02,02,21.80
2009,07,28,02,03,21.80
2009,07,28,02,04,21.80
2009,07,28,02,05,21.80
2009,07,28,02,06,21.80
2009,07,28,02,07,21.70
2009,07,28,02,08,21.70
2009,07,28,02,09,21.70
2009,07,28,02,10,21.60
2009,07,28,02,11,21.60
2009,07,28,02,12,21.60
2009,07,28,02,13,21.50
2009,07,28,02,14,21.40
2009,07,28,02,15,21.40
2009,07,28,02,16,21.40
2009,07,28,02,17,21.40
2009,07,28,02,18,21.40
2009,07,28,02,19,21.40
2009,07,28,02,20,21.40
2009,07,28,02,21,21.40
2009,07,28,02,22,21.40
2009,07,28,02,23,21.50
2009,07,28,02,24,21.50
2009,07,28,02,25,21.60
2009,07,28,02,26,21.60
2009,07,28,02,27,21.70
2009,07,28,02,28,21.80
2009,07,28,02,29,21.80
2009,07,28,02,30,21.80
2009,07,28,02,31,21.90
2009,07,28,02,32,21.90
2009,07,28,02,33,22.00
2009,07,28,02,34,22.00
2009,07,28,02,35,22.10
2009,07,28,02,36,22.10
2009,07,28,02,37,22.20
2009,07,28,02,38,22.20
2009,07,28,02,39,22.20
2009,07,28,02,40,22.20
2009,07,28,02,41,22.30
2009,07,28,02,42,22.30
2009,07,28,02,43,22.30
2009,07,28,02,44,22.30
2009,07,28,02,45,22.30
2009,07,28,02,46,22.30
2009,07,28,02,47,22.30
2009,07,28,02,48,22.30
2009,07,28,02,49,22.30
2009,07,28,02,50,22.20
2009,07,28,02,51,22.20
2009,07,28,02,52,22.20
2009,07,28,02,53,22.20
2009,07,28,02,54,22.20
2009,07,28,02,55,22.10
2009,07,28,02,56,22.10
2009,07,28,02,57,22.10
2009,07,28,02,58,22.10
2009,07,28,02,59,22.10
2009,07,28,03,00,22.10
2009,07,28,03,01,22.10
2009,07,28,03,02,22.10
2009,07,28,03,03,22.20
2009,07,28,03,04,22.20
2009,07,28,03,05,22.20
2009,07,28,03,06,22.20
2009,07,28,03,07,22.30
2009,07,28,03,08,22.30
2009,07,28,03,09,22.30
2009,07,28,03,10,22.30
2009,07,28,03,11,22.30
2009,07,28,03,12,22.30
2009,07,28,03,13,22.30
2009,07,28,03,14,22.30
2009,07,28,03,15,22.30
2009,07,28,03,16,22.20
2009,07,28,03,17,22.20
2009,07,28,03,18,22.20
2009,07,28,03,19,22.10
2009,07,28,03,20,22.10
2009,07,28,03,21,22.10
2009,07,28,03,22,22.10
2009,07,28,03,23,22.00
2009,07,28,03,24,21.90
2009,07,28,03,25,21.90
2009,07,28,03,26,21.90
2009,07,28,03,27,21.90
2009,07,28,03,28,21.90
2009,07,28,03,29,22.00
2009,07,28,03,30,22.00
2009,07,28,03,31,22.10
2009,07,28,03,32,22.10
2009,07,28,03,33,22.20
2009,07,28,03,34,22.20
2009,07,28,03,35,22.20
2009,07,28,03,36,22.30
2009,07,28,03,37,22.30
2009,07,28,03,38,22.30
2009,07,28,03,39,22.40
2009,07,28,03,40,22.40
2009,07,28,03,41,22.50
2009,07,28,03,42,22.50
2009,07,28,03,43,22.50
2009,07,28,03,44,22.60
2009,07,28,03,45,22.60
2009,07,28,03,46,22.60
2009,07,28,03,47,22.60
2009,07,28,03,48,22.60
2009,07,28,03,49,22.60
2009,07,28,03,50,22.60
2009,07,28,03,51,22.60
2009,07,28,03,52,22.60
2009,07,28,03,53,22.60
2009,07,28,03,54,22.60
2009,07,28,03,55,22.60
2009,07,28,03,56,22.60
2009,07,28,03,57,22.50
2009,07,28,03,58,22.40
2009,07,28,03,59,22.40
2009,07,28,04,00,22.30
2009,07,28,04,01,22.20
2009,07,28,04,02,22.20
2009,07,28,04,03,22.10
2009,07,28,04,04,22.00
2009,07,28,04,05,21.90
2009,07,28,04,06,21.90
2009,07,28,04,07,21.80
2009,07,28,04,08,21.80
2009,07,28,04,09,21.70
2009,07,28,04,10,21.70
2009,07,28,04,11,21.60
2009,07,28,04,12,21.60
2009,07,28,04,13,21.50
2009,07,28,04,14,21.50
2009,07,28,04,15,21.40
2009,07,28,04,16,21.40
2009,07,28,04,17,21.40
2009,07,28,04,18,21.30
2009,07,28,04,19,21.30
2009,07,28,04,20,21.30
2009,07,28,04,21,21.20
2009,07,28,04,22,21.20
2009,07,28,04,23,21.20
2009,07,28,04,24,21.20
2009,07,28,04,25,21.20
2009,07,28,04,26,21.20
2009,07,28,04,27,21.20
2009,07,28,04,28,21.20
2009,07,28,04,29,21.20
2009,07,28,04,30,21.20
2009,07,28,04,31,21.20
2009,07,28,04,32,21.20
2009,07,28,04,33,21.20
2009,07,28,04,34,21.20
2009,07,28,04,35,21.20
2009,07,28,04,36,21.20
2009,07,28,04,37,21.20
2009,07,28,04,38,21.20
2009,07,28,04,39,21.20
2009,07,28,04,40,21.20
2009,07,28,04,41,21.20
2009,07,28,04,42,21.20
2009,07,28,04,43,21.20
2009,07,28,04,44,21.20
2009,07,28,04,45,21.20
2009,07,28,04,46,21.20
2009,07,28,04,47,21.20
2009,07,28,04,48,21.20
2009,07,28,04,49,21.20
2009,07,28,04,50,21.20
2009,07,28,04,51,21.20
2009,07,28,04,52,21.20
2009,07,28,04,53,21.30
2009,07,28,04,54,21.30
2009,07,28,04,55,21.30
2009,07,28,04,56,21.30
2009,07,28,04,57,21.30
2009,07,28,04,58,21.30
2009,07,28,04,59,21.40
2009,07,28,05,00,21.40
2009,07,28,05,01,21.50
2009,07,28,05,02,21.50
2009,07,28,05,03,21.60
2009,07,28,05,04,21.60
2009,07,28,05,05,21.60
2009,07,28,05,06,21.70
2009,07,28,05,07,21.70
2009,07,28,05,08,21.70
2009,07,28,05,09,21.70
2009,07,28,05,10,21.70
2009,07,28,05,11,21.70
2009,07,28,05,12,21.80
2009,07,28,05,13,21.80
2009,07,28,05,14,21.80
2009,07,28,05,15,21.80
2009,07,28,05,16,21.80
2009,07,28,05,17,21.90
2009,07,28,05,18,21.90
2009,07,28,05,19,21.90
2009,07,28,05,20,21.90
2009,07,28,05,21,21.90
2009,07,28,05,22,21.90
2009,07,28,05,23,22.00
2009,07,28,05,24,22.00
2009,07,28,05,25,22.00
2009,07,28,05,26,22.10
2009,07,28,05,27,22.10
2009,07,28,05,28,22.10
2009,07,28,05,29,22.10
2009,07,28,05,30,22.10
2009,07,28,05,31,22.10
2009,07,28,05,32,22.20
2009,07,28,05,33,22.20
2009,07,28,05,34,22.20
2009,07,28,05,35,22.20
2009,07,28,05,36,22.20
2009,07,28,05,37,22.30
2009,07,28,05,38,22.30
2009,07,28,05,39,22.30
2009,07,28,05,40,22.30
2009,07,28,05,41,22.40
2009,07,28,05,42,22.40
2009,07,28,05,43,22.40
2009,07,28,05,44,22.50
2009,07,28,05,45,22.50
2009,07,28,05,46,22.50
2009,07,28,05,47,22.40
2009,07,28,05,48,22.50
2009,07,28,05,49,22.40
2009,07,28,05,50,22.40
2009,07,28,05,51,22.40
2009,07,28,05,52,22.40
2009,07,28,05,53,22.40
2009,07,28,05,54,22.40
2009,07,28,05,55,22.40
2009,07,28,05,56,22.40
2009,07,28,05,57,22.40
2009,07,28,05,58,22.40
2009,07,28,05,59,22.40
2009,07,28,06,00,22.40
2009,07,28,06,01,22.40
2009,07,28,06,02,22.40
2009,07,28,06,03,22.40
2009,07,28,06,04,22.40
2009,07,28,06,05,22.40
2009,07,28,06,06,22.40
2009,07,28,06,07,22.40
2009,07,28,06,08,22.40
2009,07,28,06,09,22.50
2009,07,28,06,10,22.50
2009,07,28,06,11,22.50
2009,07,28,06,12,22.50
2009,07,28,06,13,22.50
2009,07,28,06,14,22.50
2009,07,28,06,15,22.50
2009,07,28,06,16,22.40
2009,07,28,06,17,22.40
2009,07,28,06,18,22.40
2009,07,28,06,19,22.40
2009,07,28,06,20,22.40
2009,07,28,06,21,22.40
2009,07,28,06,22,22.50
2009,07,28,06,23,22.50
2009,07,28,06,24,22.60
2009,07,28,06,25,22.60
2009,07,28,06,26,22.60
2009,07,28,06,27,22.60
2009,07,28,06,28,22.60
2009,07,28,06,29,22.60
2009,07,28,06,30,22.60
2009,07,28,06,31,22.60
2009,07,28,06,32,22.60
2009,07,28,06,33,22.60
2009,07,28,06,34,22.60
2009,07,28,06,35,22.60
2009,07,28,06,36,22.60
2009,07,28,06,37,22.60
2009,07,28,06,38,22.60
2009,07,28,06,39,22.60
2009,07,28,06,40,22.60
2009,07,28,06,41,22.60
2009,07,28,06,42,22.60
2009,07,28,06,43,22.70
2009,07,28,06,44,22.70
2009,07,28,06,45,22.70
2009,07,28,06,46,22.70
2009,07,28,06,47,22.70
2009,07,28,06,48,22.70
2009,07,28,06,49,22.70
2009,07,28,06,50,22.70
2009,07,28,06,51,22.70
2009,07,28,06,52,22.70
2009,07,28,06,53,22.70
2009,07,28,06,54,22.70
2009,07,28,06,55,22.70
2009,07,28,06,56,22.70
2009,07,28,06,57,22.70
2009,07,28,06,58,22.70
2009,07,28,06,59,22.70
2009,07,28,07,00,22.70
2009,07,28,07,01,22.70
2009,07,28,07,02,22.70
2009,07,28,07,03,22.70
2009,07,28,07,04,22.70
2009,07,28,07,05,22.70
2009,07,28,07,06,22.70
2009,07,28,07,07,22.70
2009,07,28,07,08,22.70
2009,07,28,07,09,22.70
2009,07,28,07,10,22.70
2009,07,28,07,11,22.70
2009,07,28,07,12,22.70
2009,07,28,07,13,22.70
2009,07,28,07,14,22.70
2009,07,28,07,15,22.80
2009,07,28,07,16,22.80
2009,07,28,07,17,22.80
2009,07,28,07,18,22.80
2009,07,28,07,19,22.80
2009,07,28,07,20,22.80
2009,07,28,07,21,22.80
2009,07,28,07,22,22.80
2009,07,28,07,23,22.90
2009,07,28,07,24,22.90
2009,07,28,07,25,22.90
2009,07,28,07,26,22.90
2009,07,28,07,27,22.90
2009,07,28,07,28,22.90
2009,07,28,07,29,22.90
2009,07,28,07,30,22.90
2009,07,28,07,31,22.90
2009,07,28,07,32,23.00
2009,07,28,07,33,23.00
2009,07,28,07,34,23.00
2009,07,28,07,35,23.00
2009,07,28,07,36,23.10
2009,07,28,07,37,23.10
2009,07,28,07,38,23.10
2009,07,28,07,39,23.10
2009,07,28,07,40,23.10
2009,07,28,07,41,23.10
2009,07,28,07,42,23.20
2009,07,28,07,43,23.20
2009,07,28,07,44,23.20
2009,07,28,07,45,23.30
2009,07,28,07,46,23.30
2009,07,28,07,47,23.30
2009,07,28,07,48,23.40
2009,07,28,07,49,23.40
2009,07,28,07,50,23.40
2009,07,28,07,51,23.40
2009,07,28,07,52,23.50
2009,07,28,07,53,23.50
2009,07,28,07,54,23.50
2009,07,28,07,55,23.60
2009,07,28,07,56,23.60
2009,07,28,07,57,23.60
2009,07,28,07,58,23.60
2009,07,28,07,59,23.70
2009,07,28,08,00,23.70
2009,07,28,08,01,23.80
2009,07,28,08,02,23.80
2009,07,28,08,03,23.80
2009,07,28,08,04,23.80
2009,07,28,08,05,23.90
2009,07,28,08,06,23.90
2009,07,28,08,07,23.90
2009,07,28,08,08,24.00
2009,07,28,08,09,24.00
2009,07,28,08,10,24.10
2009,07,28,08,11,24.10
2009,07,28,08,12,24.10
2009,07,28,08,13,24.10
2009,07,28,08,14,24.20
2009,07,28,08,15,24.20
2009,07,28,08,16,24.30
2009,07,28,08,17,24.30
2009,07,28,08,18,24.30
2009,07,28,08,19,24.40
2009,07,28,08,20,24.40
2009,07,28,08,21,24.40
2009,07,28,08,22,24.40
2009,07,28,08,23,24.50
2009,07,28,08,24,24.50
2009,07,28,08,25,24.50
2009,07,28,08,26,24.60
2009,07,28,08,27,24.60
2009,07,28,08,28,24.60
2009,07,28,08,29,24.60
2009,07,28,08,30,24.60
2009,07,28,08,31,24.70
2009,07,28,08,32,24.70
2009,07,28,08,33,24.70
2009,07,28,08,34,24.70
2009,07,28,08,35,24.70
2009,07,28,08,36,24.80
2009,07,28,08,37,24.80
2009,07,28,08,38,24.80
2009,07,28,08,39,24.80
2009,07,28,08,40,24.70
2009,07,28,08,41,24.70
2009,07,28,08,42,24.70
2009,07,28,08,43,24.70
2009,07,28,08,44,24.70
2009,07,28,08,45,24.70
2009,07,28,08,46,24.70
2009,07,28,08,47,24.70
2009,07,28,08,48,24.80
2009,07,28,08,49,24.80
2009,07,28,08,50,24.80
2009,07,28,08,51,24.80
2009,07,28,08,52,24.90
2009,07,28,08,53,24.90
2009,07,28,08,54,24.90
2009,07,28,08,55,24.90
2009,07,28,08,56,24.90
2009,07,28,08,57,24.90
2009,07,28,08,58,24.90
2009,07,28,08,59,24.80
2009,07,28,09,00,24.80
2009,07,28,09,01,24.80
2009,07,28,09,02,24.80
2009,07,28,09,03,24.80
2009,07,28,09,04,24.70
2009,07,28,09,05,24.70
2009,07,28,09,06,24.70
2009,07,28,09,07,24.70
2009,07,28,09,08,24.70
2009,07,28,09,09,24.70
2009,07,28,09,10,24.60
2009,07,28,09,11,24.60
2009,07,28,09,12,24.60
2009,07,28,09,13,24.70
2009,07,28,09,14,24.70
2009,07,28,09,15,24.80
2009,07,28,09,16,24.80
2009,07,28,09,17,24.90
2009,07,28,09,18,24.90
2009,07,28,09,19,25.00
2009,07,28,09,20,25.10
2009,07,28,09,21,25.10
2009,07,28,09,22,25.20
2009,07,28,09,23,25.30
2009,07,28,09,24,25.30
2009,07,28,09,25,25.40
2009,07,28,09,26,25.40
2009,07,28,09,27,25.50
2009,07,28,09,28,25.50
2009,07,28,09,29,25.50
2009,07,28,09,30,25.50
2009,07,28,09,31,25.50
2009,07,28,09,32,25.60
2009,07,28,09,33,25.60
2009,07,28,09,34,25.60
2009,07,28,09,35,25.70
2009,07,28,09,36,25.70
2009,07,28,09,37,25.80
2009,07,28,09,38,25.90
2009,07,28,09,39,25.90
2009,07,28,09,40,25.90
2009,07,28,09,41,25.90
2009,07,28,09,42,25.90
2009,07,28,09,43,25.90
2009,07,28,09,44,25.90
2009,07,28,09,45,25.90
2009,07,28,09,46,25.90
2009,07,28,09,47,26.00
2009,07,28,09,48,26.10
2009,07,28,09,49,26.20
2009,07,28,09,50,26.20
2009,07,28,09,51,26.20
2009,07,28,09,52,26.20
2009,07,28,09,53,26.10
2009,07,28,09,54,26.20
2009,07,28,09,55,26.20
2009,07,28,09,56,26.20
2009,07,28,09,57,26.20
2009,07,28,09,58,26.20
2009,07,28,09,59,26.20
2009,07,28,10,00,26.20
2009,07,28,10,01,26.20
2009,07,28,10,02,26.20
2009,07,28,10,03,26.10
2009,07,28,10,04,26.10
2009,07,28,10,05,26.10
2009,07,28,10,06,26.10
2009,07,28,10,07,26.20
2009,07,28,10,08,26.10
2009,07,28,10,09,26.20
2009,07,28,10,10,26.20
2009,07,28,10,11,26.30
2009,07,28,10,12,26.30
2009,07,28,10,13,26.30
2009,07,28,10,14,26.30
2009,07,28,10,15,26.40
2009,07,28,10,16,26.40
2009,07,28,10,17,26.40
2009,07,28,10,18,26.50
2009,07,28,10,19,26.50
2009,07,28,10,20,26.40
2009,07,28,10,21,26.60
2009,07,28,10,22,26.60
2009,07,28,10,23,26.60
2009,07,28,10,24,26.70
2009,07,28,10,25,26.80
2009,07,28,10,26,26.90
2009,07,28,10,27,27.00
2009,07,28,10,28,27.10
2009,07,28,10,29,27.20
2009,07,28,10,30,27.30
2009,07,28,10,31,27.40
2009,07,28,10,32,27.40
2009,07,28,10,33,27.40
2009,07,28,10,34,27.40
2009,07,28,10,35,27.30
2009,07,28,10,36,27.20
2009,07,28,10,37,27.20
2009,07,28,10,38,27.10
2009,07,28,10,39,27.10
2009,07,28,10,40,27.10
2009,07,28,10,41,27.10
2009,07,28,10,42,27.10
2009,07,28,10,43,27.20
2009,07,28,10,44,27.20
2009,07,28,10,45,27.20
2009,07,28,10,46,27.20
2009,07,28,10,47,27.20
2009,07,28,10,48,27.20
2009,07,28,10,49,27.30
2009,07,28,10,50,27.30
2009,07,28,10,51,27.40
2009,07,28,10,52,27.50
2009,07,28,10,53,27.60
2009,07,28,10,54,27.70
2009,07,28,10,55,27.80
2009,07,28,10,56,27.70
2009,07,28,10,57,27.70
2009,07,28,10,58,27.70
2009,07,28,10,59,27.70
2009,07,28,11,00,27.70
2009,07,28,11,01,27.70
2009,07,28,11,02,27.70
2009,07,28,11,03,27.70
2009,07,28,11,04,27.70
2009,07,28,11,05,27.70
2009,07,28,11,06,27.60
2009,07,28,11,07,27.60
2009,07,28,11,08,27.60
2009,07,28,11,09,27.70
2009,07,28,11,10,27.70
2009,07,28,11,11,27.80
2009,07,28,11,12,27.90
2009,07,28,11,13,27.90
2009,07,28,11,14,28.00
2009,07,28,11,15,28.00
2009,07,28,11,16,28.10
2009,07,28,11,17,28.00
2009,07,28,11,18,28.00
2009,07,28,11,19,28.10
2009,07,28,11,20,28.10
2009,07,28,11,21,28.00
2009,07,28,11,22,27.90
2009,07,28,11,23,27.90
2009,07,28,11,24,28.00
2009,07,28,11,25,28.10
2009,07,28,11,26,28.20
2009,07,28,11,27,28.30
2009,07,28,11,28,28.40
2009,07,28,11,29,28.40
2009,07,28,11,30,28.40
2009,07,28,11,31,28.50
2009,07,28,11,32,28.50
2009,07,28,11,33,28.60
2009,07,28,11,34,28.60
2009,07,28,11,35,28.60
2009,07,28,11,36,28.60
2009,07,28,11,37,28.60
2009,07,28,11,38,28.60
2009,07,28,11,39,28.70
2009,07,28,11,40,28.80
2009,07,28,11,41,28.90
2009,07,28,11,42,29.00
2009,07,28,11,43,29.00
2009,07,28,11,44,29.00
2009,07,28,11,45,29.00
2009,07,28,11,46,29.00
2009,07,28,11,47,29.00
2009,07,28,11,48,28.80
2009,07,28,11,49,28.80
2009,07,28,11,50,28.80
2009,07,28,11,51,28.80
2009,07,28,11,52,28.90
2009,07,28,11,53,29.00
2009,07,28,11,54,29.00
2009,07,28,11,55,29.00
2009,07,28,11,56,29.10
2009,07,28,11,57,29.20
2009,07,28,11,58,29.20
2009,07,28,11,59,29.20
2009,07,28,12,00,29.10
2009,07,28,12,01,29.10
2009,07,28,12,02,29.10
2009,07,28,12,03,29.00
2009,07,28,12,04,29.00
2009,07,28,12,05,29.00
2009,07,28,12,06,29.10
2009,07,28,12,07,29.20
2009,07,28,12,08,29.30
2009,07,28,12,09,29.40
2009,07,28,12,10,29.50
2009,07,28,12,11,29.60
2009,07,28,12,12,29.50
2009,07,28,12,13,29.50
2009,07,28,12,14,29.50
2009,07,28,12,15,29.50
2009,07,28,12,16,29.40
2009,07,28,12,17,29.40
2009,07,28,12,18,29.50
2009,07,28,12,19,29.60
2009,07,28,12,20,29.60
2009,07,28,12,21,29.70
2009,07,28,12,22,29.80
2009,07,28,12,23,29.90
2009,07,28,12,24,29.90
2009,07,28,12,25,29.90
2009,07,28,12,26,29.90
2009,07,28,12,27,30.00
2009,07,28,12,28,30.00
2009,07,28,12,29,30.10
2009,07,28,12,30,30.20
2009,07,28,12,31,30.20
2009,07,28,12,32,30.30
2009,07,28,12,33,30.40
2009,07,28,12,34,30.40
2009,07,28,12,35,30.40
2009,07,28,12,36,30.40
2009,07,28,12,37,30.40
2009,07,28,12,38,30.40
2009,07,28,12,39,30.40
2009,07,28,12,40,30.40
2009,07,28,12,41,30.40
2009,07,28,12,42,30.40
2009,07,28,12,43,30.30
2009,07,28,12,44,30.20
2009,07,28,12,45,30.20
2009,07,28,12,46,30.30
2009,07,28,12,47,30.30
2009,07,28,12,48,30.40
2009,07,28,12,49,30.40
2009,07,28,12,50,30.40
2009,07,28,12,51,30.40
2009,07,28,12,52,30.30
2009,07,28,12,53,30.30
2009,07,28,12,54,30.30
2009,07,28,12,55,30.30
2009,07,28,12,56,30.40
2009,07,28,12,57,30.50
2009,07,28,12,58,30.60
2009,07,28,12,59,30.70
2009,07,28,13,00,30.90
2009,07,28,13,01,30.90
2009,07,28,13,02,31.00
2009,07,28,13,03,31.00
2009,07,28,13,04,31.00
2009,07,28,13,05,31.00
2009,07,28,13,06,31.00
2009,07,28,13,07,30.90
2009,07,28,13,08,30.90
2009,07,28,13,09,30.90
2009,07,28,13,10,30.90
2009,07,28,13,11,30.80
2009,07,28,13,12,30.80
2009,07,28,13,13,30.70
2009,07,28,13,14,30.70
2009,07,28,13,15,30.60
2009,07,28,13,16,30.70
2009,07,28,13,17,30.80
2009,07,28,13,18,30.80
2009,07,28,13,19,30.80
2009,07,28,13,20,30.80
2009,07,28,13,21,30.80
2009,07,28,13,22,30.80
2009,07,28,13,23,30.80
2009,07,28,13,24,30.80
2009,07,28,13,25,30.80
2009,07,28,13,26,30.90
2009,07,28,13,27,30.90
2009,07,28,13,28,30.90
2009,07,28,13,29,31.00
2009,07,28,13,30,31.00
2009,07,28,13,31,31.10
2009,07,28,13,32,31.20
2009,07,28,13,33,31.30
2009,07,28,13,34,31.30
2009,07,28,13,35,31.30
2009,07,28,13,36,31.30
2009,07,28,13,37,31.30
2009,07,28,13,38,31.40
2009,07,28,13,39,31.40
2009,07,28,13,40,31.50
2009,07,28,13,41,31.60
2009,07,28,13,42,31.70
2009,07,28,13,43,31.60
2009,07,28,13,44,31.60
2009,07,28,13,45,31.50
2009,07,28,13,46,31.50
2009,07,28,13,47,31.40
2009,07,28,13,48,31.40
2009,07,28,13,49,31.30
2009,07,28,13,50,31.40
2009,07,28,13,51,31.40
2009,07,28,13,52,31.40
2009,07,28,13,53,31.30
2009,07,28,13,54,31.20
2009,07,28,13,55,31.20
2009,07,28,13,56,31.10
2009,07,28,13,57,30.90
2009,07,28,13,58,30.80
2009,07,28,13,59,30.80
2009,07,28,14,00,30.70
2009,07,28,14,01,30.60
2009,07,28,14,02,30.60
2009,07,28,14,03,30.60
2009,07,28,14,04,30.60
2009,07,28,14,05,30.50
2009,07,28,14,06,30.50
2009,07,28,14,07,30.40
2009,07,28,14,08,30.40
2009,07,28,14,09,30.30
2009,07,28,14,10,30.30
2009,07,28,14,11,30.20
2009,07,28,14,12,30.20
2009,07,28,14,13,30.20
2009,07,28,14,14,30.10
2009,07,28,14,15,30.10
2009,07,28,14,16,30.00
2009,07,28,14,17,29.90
2009,07,28,14,18,29.80
2009,07,28,14,19,29.80
2009,07,28,14,20,29.70
2009,07,28,14,21,29.60
2009,07,28,14,22,29.50
2009,07,28,14,23,29.40
2009,07,28,14,24,29.30
2009,07,28,14,25,29.30
2009,07,28,14,26,29.20
2009,07,28,14,27,29.20
2009,07,28,14,28,29.20
2009,07,28,14,29,29.20
2009,07,28,14,30,29.20
2009,07,28,14,31,29.20
2009,07,28,14,32,29.20
2009,07,28,14,33,29.20
2009,07,28,14,34,29.20
2009,07,28,14,35,29.20
2009,07,28,14,36,29.10
2009,07,28,14,37,29.00
2009,07,28,14,38,29.00
2009,07,28,14,39,28.90
2009,07,28,14,40,28.90
2009,07,28,14,41,28.90
2009,07,28,14,42,28.90
2009,07,28,14,43,28.90
2009,07,28,14,44,28.80
2009,07,28,14,45,28.80
2009,07,28,14,46,28.70
2009,07,28,14,47,28.70
2009,07,28,14,48,28.70
2009,07,28,14,49,28.60
2009,07,28,14,50,28.60
2009,07,28,14,51,28.60
2009,07,28,14,52,28.60
2009,07,28,14,53,28.60
2009,07,28,14,54,28.50
2009,07,28,14,55,28.40
2009,07,28,14,56,28.40
2009,07,28,14,57,28.30
2009,07,28,14,58,28.30
2009,07,28,14,59,28.30
2009,07,28,15,00,28.20
2009,07,28,15,01,28.20
2009,07,28,15,02,28.20
2009,07,28,15,03,28.20
2009,07,28,15,04,28.20
2009,07,28,15,05,28.30
2009,07,28,15,06,28.30
2009,07,28,15,07,28.40
2009,07,28,15,08,28.40
2009,07,28,15,09,28.40
2009,07,28,15,10,28.40
2009,07,28,15,11,28.40
2009,07,28,15,12,28.40
2009,07,28,15,13,28.40
2009,07,28,15,14,28.30
2009,07,28,15,15,28.30
2009,07,28,15,16,28.40
2009,07,28,15,17,28.40
2009,07,28,15,18,28.60
2009,07,28,15,19,28.60
2009,07,28,15,20,28.80
2009,07,28,15,21,28.90
2009,07,28,15,22,28.90
2009,07,28,15,23,29.00
2009,07,28,15,24,29.00
2009,07,28,15,25,29.10
2009,07,28,15,26,29.20
2009,07,28,15,27,29.30
2009,07,28,15,28,29.40
2009,07,28,15,29,29.50
2009,07,28,15,30,29.70
2009,07,28,15,31,29.90
2009,07,28,15,32,30.10
2009,07,28,15,33,30.20
2009,07,28,15,34,30.40
2009,07,28,15,35,30.40
2009,07,28,15,36,30.50
2009,07,28,15,37,30.60
2009,07,28,15,38,30.80
2009,07,28,15,39,30.90
2009,07,28,15,40,31.00
2009,07,28,15,41,31.10
2009,07,28,15,42,31.10
2009,07,28,15,43,31.00
2009,07,28,15,44,31.00
2009,07,28,15,45,30.90
2009,07,28,15,46,30.90
2009,07,28,15,47,30.80
2009,07,28,15,48,30.80
2009,07,28,15,49,30.80
2009,07,28,15,50,30.80
2009,07,28,15,51,30.80
2009,07,28,15,52,30.80
2009,07,28,15,53,30.70
2009,07,28,15,54,30.70
2009,07,28,15,55,30.70
2009,07,28,15,56,30.70
2009,07,28,15,57,30.70
2009,07,28,15,58,30.70
2009,07,28,15,59,30.60
2009,07,28,16,00,30.60
2009,07,28,16,01,30.70
2009,07,28,16,02,30.70
2009,07,28,16,03,30.80
2009,07,28,16,04,30.90
2009,07,28,16,05,31.10
2009,07,28,16,06,31.20
2009,07,28,16,07,31.40
2009,07,28,16,08,31.60
2009,07,28,16,09,31.80
2009,07,28,16,10,31.90
2009,07,28,16,11,32.00
2009,07,28,16,12,32.10
2009,07,28,16,13,32.20
2009,07,28,16,14,32.30
2009,07,28,16,15,32.30
2009,07,28,16,16,32.40
2009,07,28,16,17,32.50
2009,07,28,16,18,32.60
2009,07,28,16,19,32.60
2009,07,28,16,20,32.60
2009,07,28,16,21,32.50
2009,07,28,16,22,32.40
2009,07,28,16,23,32.30
2009,07,28,16,24,32.20
2009,07,28,16,25,32.10
2009,07,28,16,26,32.00
2009,07,28,16,27,31.90
2009,07,28,16,28,31.80
2009,07,28,16,29,31.70
2009,07,28,16,30,31.50
2009,07,28,16,31,31.30
2009,07,28,16,32,31.20
2009,07,28,16,33,31.10
2009,07,28,16,34,31.00
2009,07,28,16,35,30.90
2009,07,28,16,36,30.90
2009,07,28,16,37,30.80
2009,07,28,16,38,30.80
2009,07,28,16,39,30.80
2009,07,28,16,40,30.70
2009,07,28,16,41,30.60
2009,07,28,16,42,30.50
2009,07,28,16,43,30.40
2009,07,28,16,44,30.40
2009,07,28,16,45,30.30
2009,07,28,16,46,30.30
2009,07,28,16,47,30.20
2009,07,28,16,48,30.00
2009,07,28,16,49,29.90
2009,07,28,16,50,29.80
2009,07,28,16,51,29.70
2009,07,28,16,52,29.70
2009,07,28,16,53,29.60
2009,07,28,16,54,29.60
2009,07,28,16,55,29.50
2009,07,28,16,56,29.40
2009,07,28,16,57,29.40
2009,07,28,16,58,29.40
2009,07,28,16,59,29.40
2009,07,28,17,00,29.40
2009,07,28,17,01,29.30
2009,07,28,17,02,29.30
2009,07,28,17,03,29.30
2009,07,28,17,04,29.30
2009,07,28,17,05,29.30
2009,07,28,17,06,29.30
2009,07,28,17,07,29.30
2009,07,28,17,08,29.30
2009,07,28,17,09,29.30
2009,07,28,17,10,29.30
2009,07,28,17,11,29.30
2009,07,28,17,12,29.20
2009,07,28,17,13,29.20
2009,07,28,17,14,29.20
2009,07,28,17,15,29.20
2009,07,28,17,16,29.20
2009,07,28,17,17,29.20
2009,07,28,17,18,29.20
2009,07,28,17,19,29.20